"read_dt","SO2 (ppb)","flags","PMT voltage (V)","lamp voltage (V)","lamp intensity (Hz)","internal temp (C)","react chamber temp (C)","sample flow (l/min)","pres (mmHg)","SO2 bkg (ppb)","SO2 coefficient"
2014-12-21 00:00:00,2149E-3,5C000000,-0724,0836,12235,026.1,045.4,0.456,742.8,01.18,0.508
2014-12-21 00:01:00,2266E-3,5C000000,-0724,0836,12167,026.1,045.4,0.455,742.8,01.18,0.508
2014-12-21 00:02:00,2067E-3,5C000000,-0724,0835,12088,026.0,045.4,0.455,742.9,01.18,0.508
2014-12-21 00:03:00,2116E-3,5C000000,-0724,0835,12230,026.1,045.4,0.455,742.8,01.18,0.508
2014-12-21 00:04:00,2162E-3,5C000000,-0724,0835,12244,026.1,045.4,0.455,742.8,01.18,0.508
2014-12-21 00:05:00,1969E-3,5C000000,-0724,0836,12217,026.0,045.4,0.456,742.8,01.18,0.508
2014-12-21 00:06:00,2085E-3,5C000000,-0724,0836,12163,026.1,045.4,0.455,742.8,01.18,0.508
2014-12-21 00:07:00,2298E-3,5C000000,-0724,0835,12205,026.1,045.4,0.455,742.8,01.18,0.508
2014-12-21 00:08:00,2155E-3,5C000000,-0724,0835,12366,026.1,045.4,0.456,742.8,01.18,0.508
2014-12-21 00:09:00,2074E-3,5C000000,-0724,0834,12007,026.1,045.4,0.455,742.8,01.18,0.508
2014-12-21 00:10:00,2179E-3,5C000000,-0724,0836,12201,026.0,045.4,0.455,742.8,01.18,0.508
2014-12-21 00:11:00,2167E-3,5C000000,-0724,0835,11894,026.1,045.4,0.455,742.8,01.18,0.508
2014-12-21 00:12:00,2105E-3,5C000000,-0724,0835,12336,026.0,045.4,0.455,742.8,01.18,0.508
2014-12-21 00:13:00,1934E-3,5C000000,-0724,0835,11864,026.1,045.4,0.456,742.8,01.18,0.508
2014-12-21 00:14:00,2225E-3,5C000000,-0724,0835,12120,026.1,045.4,0.455,742.8,01.18,0.508
2014-12-21 00:15:00,2102E-3,5C000000,-0724,0835,12059,026.1,045.4,0.455,742.8,01.18,0.508
2014-12-21 00:16:00,2159E-3,5C000000,-0724,0836,12216,026.1,045.4,0.455,742.8,01.18,0.508
2014-12-21 00:17:00,2116E-3,5C000000,-0724,0836,12112,026.0,045.4,0.455,742.8,01.18,0.508
2014-12-21 00:18:00,2122E-3,5C000000,-0724,0836,11999,026.0,045.4,0.456,742.8,01.18,0.508
2014-12-21 00:19:00,2087E-3,5C000000,-0724,0837,12369,026.1,045.4,0.455,742.8,01.18,0.508
2014-12-21 00:20:00,2178E-3,5C000000,-0724,0836,12120,026.0,045.4,0.455,742.8,01.18,0.508
2014-12-21 00:21:00,2085E-3,5C000000,-0724,0836,12130,026.0,045.4,0.455,742.8,01.18,0.508
2014-12-21 00:22:00,2066E-3,5C000000,-0724,0836,12125,026.1,045.4,0.455,742.8,01.18,0.508
2014-12-21 00:23:00,2097E-3,5C000000,-0724,0835,12223,026.1,045.4,0.456,742.8,01.18,0.508
2014-12-21 00:24:00,1988E-3,5C000000,-0724,0836,11977,026.0,045.4,0.455,742.8,01.18,0.508
2014-12-21 00:25:00,2088E-3,5C000000,-0724,0836,12196,026.1,045.4,0.456,742.8,01.18,0.508
2014-12-21 00:26:00,2128E-3,5C000000,-0724,0835,12347,026.0,045.4,0.455,742.8,01.18,0.508
2014-12-21 00:27:00,2032E-3,5C000000,-0724,0835,12156,026.1,045.4,0.455,742.8,01.18,0.508
2014-12-21 00:28:00,2055E-3,5C000000,-0724,0837,12067,026.0,045.4,0.456,742.8,01.18,0.508
2014-12-21 00:29:00,2136E-3,5C000000,-0724,0835,12166,026.1,045.4,0.455,742.8,01.18,0.508
2014-12-21 00:30:00,2284E-3,5C000000,-0724,0836,12240,026.0,045.4,0.456,742.7,01.18,0.508
2014-12-21 00:31:00,2168E-3,5C000000,-0724,0836,12059,026.0,045.4,0.455,742.8,01.18,0.508
2014-12-21 00:32:00,2095E-3,5C000000,-0724,0835,12044,026.0,045.4,0.455,742.7,01.18,0.508
2014-12-21 00:33:00,2270E-3,5C000000,-0724,0836,12211,026.1,045.4,0.455,742.8,01.18,0.508
2014-12-21 00:34:00,2127E-3,5C000000,-0724,0836,12111,026.1,045.4,0.455,742.8,01.18,0.508
2014-12-21 00:35:00,2061E-3,5C000000,-0724,0836,11987,026.0,045.4,0.456,742.8,01.18,0.508
2014-12-21 00:36:00,2109E-3,5C000000,-0724,0835,11993,026.0,045.4,0.455,742.8,01.18,0.508
2014-12-21 00:37:00,2151E-3,5C000000,-0724,0836,12215,026.1,045.4,0.456,742.7,01.18,0.508
2014-12-21 00:38:00,2029E-3,5C000000,-0724,0834,12142,026.0,045.4,0.455,742.7,01.18,0.508
2014-12-21 00:39:00,2193E-3,5C000000,-0724,0835,12189,026.1,045.4,0.455,742.7,01.18,0.508
2014-12-21 00:40:00,2159E-3,5C000000,-0724,0836,11975,026.1,045.4,0.455,742.7,01.18,0.508
2014-12-21 00:41:00,2288E-3,5C000000,-0724,0836,12214,026.1,045.4,0.455,742.7,01.18,0.508
2014-12-21 00:42:00,2097E-3,5C000000,-0724,0836,12066,026.1,045.4,0.455,742.7,01.18,0.508
2014-12-21 00:43:00,2204E-3,5C000000,-0724,0836,12234,026.1,045.4,0.455,742.7,01.18,0.508
2014-12-21 00:44:00,2229E-3,5C000000,-0724,0835,12179,026.1,045.3,0.456,742.7,01.18,0.508
2014-12-21 00:45:00,2196E-3,5C000000,-0724,0835,12054,026.0,045.3,0.455,742.7,01.18,0.508
2014-12-21 00:46:00,2085E-3,5C000000,-0724,0836,12247,026.1,045.3,0.455,742.7,01.18,0.508
2014-12-21 00:47:00,2169E-3,5C000000,-0724,0836,12150,026.0,045.4,0.455,742.7,01.18,0.508
2014-12-21 00:48:00,2079E-3,5C000000,-0724,0835,12016,026.0,045.4,0.455,742.7,01.18,0.508
2014-12-21 00:49:00,2066E-3,5C000000,-0724,0835,12021,026.0,045.4,0.455,742.7,01.18,0.508
2014-12-21 00:50:00,2147E-3,5C000000,-0724,0836,11891,026.0,045.4,0.455,742.7,01.18,0.508
2014-12-21 00:51:00,2143E-3,5C000000,-0724,0836,12031,026.0,045.4,0.456,742.7,01.18,0.508
2014-12-21 00:52:00,2137E-3,5C000000,-0724,0836,12343,026.0,045.4,0.455,742.7,01.18,0.508
2014-12-21 00:53:00,2177E-3,5C000000,-0724,0836,11972,026.1,045.4,0.455,742.7,01.18,0.508
2014-12-21 00:54:00,2195E-3,5C000000,-0724,0836,12165,026.0,045.4,0.455,742.7,01.18,0.508
2014-12-21 00:55:00,2160E-3,5C000000,-0724,0837,12107,026.0,045.4,0.455,742.7,01.18,0.508
2014-12-21 00:56:00,2105E-3,5C000000,-0724,0834,12149,026.1,045.4,0.456,742.7,01.18,0.508
2014-12-21 00:57:00,2248E-3,5C000000,-0724,0836,12118,026.0,045.4,0.455,742.7,01.18,0.508
2014-12-21 00:58:00,2048E-3,5C000000,-0724,0835,12131,026.0,045.4,0.456,742.7,01.18,0.508
2014-12-21 00:59:00,2267E-3,5C000000,-0724,0836,12261,026.1,045.4,0.455,742.7,01.18,0.508
2014-12-21 01:00:00,2208E-3,5C000000,-0724,0834,11954,026.1,045.4,0.455,742.7,01.18,0.508
2014-12-21 01:01:00,2076E-3,5C000000,-0724,0837,12143,026.0,045.4,0.455,742.7,01.18,0.508
2014-12-21 01:02:00,2213E-3,5C000000,-0724,0836,12184,026.0,045.4,0.455,742.7,01.18,0.508
2014-12-21 01:03:00,2161E-3,5C000000,-0724,0834,12096,026.0,045.4,0.455,742.7,01.18,0.508
2014-12-21 01:04:00,2115E-3,5C000000,-0724,0835,12260,026.0,045.4,0.455,742.6,01.18,0.508
2014-12-21 01:05:00,2121E-3,5C000000,-0724,0834,12257,026.1,045.4,0.456,742.6,01.18,0.508
2014-12-21 01:06:00,2224E-3,5C000000,-0724,0836,12297,026.0,045.4,0.455,742.6,01.18,0.508
2014-12-21 01:07:00,2104E-3,5C000000,-0724,0836,12248,026.1,045.4,0.455,742.7,01.18,0.508
2014-12-21 01:08:00,2224E-3,5C000000,-0724,0835,12061,026.0,045.4,0.455,742.6,01.18,0.508
2014-12-21 01:09:00,2260E-3,5C000000,-0724,0835,12065,026.0,045.4,0.455,742.6,01.18,0.508
2014-12-21 01:10:00,2140E-3,5C000000,-0724,0834,12243,026.0,045.4,0.455,742.6,01.18,0.508
2014-12-21 01:11:00,2076E-3,5C000000,-0724,0836,12189,026.0,045.4,0.455,742.6,01.18,0.508
2014-12-21 01:12:00,2010E-3,5C000000,-0724,0836,12199,026.1,045.4,0.455,742.5,01.18,0.508
2014-12-21 01:13:00,2054E-3,5C000000,-0724,0834,12030,026.0,045.4,0.455,742.5,01.18,0.508
2014-12-21 01:14:00,2191E-3,5C000000,-0724,0836,12094,026.0,045.4,0.455,742.5,01.18,0.508
2014-12-21 01:15:00,2176E-3,5C000000,-0724,0836,12210,026.0,045.4,0.456,742.5,01.18,0.508
2014-12-21 01:16:00,2129E-3,5C000000,-0724,0836,12214,026.0,045.4,0.455,742.5,01.18,0.508
2014-12-21 01:17:00,2250E-3,5C000000,-0724,0835,12230,026.1,045.4,0.456,742.5,01.18,0.508
2014-12-21 01:18:00,2272E-3,5C000000,-0724,0835,12009,026.0,045.4,0.455,742.5,01.18,0.508
2014-12-21 01:19:00,2139E-3,5C000000,-0724,0836,12100,026.1,045.4,0.455,742.5,01.18,0.508
2014-12-21 01:20:00,2268E-3,5C000000,-0724,0835,12023,026.1,045.4,0.455,742.5,01.18,0.508
2014-12-21 01:21:00,2097E-3,5C000000,-0724,0835,12038,026.1,045.4,0.455,742.5,01.18,0.508
2014-12-21 01:22:00,2152E-3,5C000000,-0724,0835,12115,026.1,045.4,0.455,742.5,01.18,0.508
2014-12-21 01:23:00,1984E-3,5C000000,-0724,0835,12115,026.1,045.4,0.455,742.5,01.18,0.508
2014-12-21 01:24:00,2027E-3,5C000000,-0724,0835,12076,026.0,045.4,0.455,742.5,01.18,0.508
2014-12-21 01:25:00,2113E-3,5C000000,-0724,0836,12218,026.1,045.4,0.455,742.5,01.18,0.508
2014-12-21 01:26:00,2043E-3,5C000000,-0724,0836,12104,026.0,045.4,0.455,742.5,01.18,0.508
2014-12-21 01:27:00,2136E-3,5C000000,-0724,0835,12058,026.1,045.4,0.455,742.4,01.18,0.508
2014-12-21 01:28:00,2154E-3,5C000000,-0724,0835,12110,026.1,045.4,0.455,742.4,01.18,0.508
2014-12-21 01:29:00,2197E-3,5C000000,-0724,0836,12088,026.1,045.4,0.455,742.5,01.18,0.508
2014-12-21 01:30:00,2046E-3,5C000000,-0724,0835,11955,026.1,045.4,0.456,742.4,01.18,0.508
2014-12-21 01:31:00,2218E-3,5C000000,-0724,0835,12058,026.1,045.4,0.455,742.4,01.18,0.508
2014-12-21 01:32:00,2080E-3,5C000000,-0724,0835,12188,026.1,045.4,0.456,742.4,01.18,0.508
2014-12-21 01:33:00,2063E-3,5C000000,-0724,0836,12326,026.1,045.4,0.455,742.4,01.18,0.508
2014-12-21 01:34:00,2084E-3,5C000000,-0724,0835,12107,026.1,045.4,0.456,742.4,01.18,0.508
2014-12-21 01:35:00,2072E-3,5C000000,-0724,0835,12046,026.1,045.4,0.455,742.4,01.18,0.508
2014-12-21 01:36:00,2168E-3,5C000000,-0724,0835,12106,026.1,045.4,0.456,742.4,01.18,0.508
2014-12-21 01:37:00,2152E-3,5C000000,-0724,0835,12148,026.1,045.4,0.455,742.3,01.18,0.508
2014-12-21 01:38:00,1923E-3,5C000000,-0724,0834,12216,026.1,045.4,0.455,742.3,01.18,0.508
2014-12-21 01:39:00,2015E-3,5C000000,-0724,0835,12131,026.1,045.4,0.455,742.3,01.18,0.508
2014-12-21 01:40:00,2231E-3,5C000000,-0724,0834,12140,026.1,045.4,0.456,742.3,01.18,0.508
2014-12-21 01:41:00,2174E-3,5C000000,-0724,0835,12074,026.1,045.4,0.455,742.3,01.18,0.508
2014-12-21 01:42:00,2044E-3,5C000000,-0724,0835,12285,026.0,045.4,0.456,742.3,01.18,0.508
2014-12-21 01:43:00,2041E-3,5C000000,-0724,0835,12174,026.1,045.4,0.455,742.3,01.18,0.508
2014-12-21 01:44:00,2102E-3,5C000000,-0724,0835,12144,026.1,045.4,0.456,742.3,01.18,0.508
2014-12-21 01:45:00,2104E-3,5C000000,-0724,0836,12071,026.1,045.4,0.455,742.3,01.18,0.508
2014-12-21 01:46:00,2046E-3,5C000000,-0724,0836,12234,026.1,045.4,0.455,742.3,01.18,0.508
2014-12-21 01:47:00,2126E-3,5C000000,-0724,0836,12091,026.1,045.4,0.455,742.3,01.18,0.508
2014-12-21 01:48:00,2041E-3,5C000000,-0724,0835,12047,026.1,045.4,0.455,742.3,01.18,0.508
2014-12-21 01:49:00,2106E-3,5C000000,-0724,0836,12216,026.1,045.4,0.455,742.3,01.18,0.508
2014-12-21 01:50:00,1996E-3,5C000000,-0724,0835,12164,026.1,045.4,0.455,742.3,01.18,0.508
2014-12-21 01:51:00,1979E-3,5C000000,-0724,0835,12113,026.1,045.4,0.455,742.3,01.18,0.508
2014-12-21 01:52:00,2134E-3,5C000000,-0724,0836,12268,026.1,045.4,0.456,742.2,01.18,0.508
2014-12-21 01:53:00,2075E-3,5C000000,-0724,0836,12136,026.1,045.4,0.455,742.2,01.18,0.508
2014-12-21 01:54:00,2029E-3,5C000000,-0724,0835,12110,026.1,045.4,0.456,742.3,01.18,0.508
2014-12-21 01:55:00,2236E-3,5C000000,-0724,0835,12423,026.1,045.4,0.455,742.2,01.18,0.508
2014-12-21 01:56:00,2119E-3,5C000000,-0724,0836,12227,026.1,045.4,0.455,742.3,01.18,0.508
2014-12-21 01:57:00,2124E-3,5C000000,-0724,0836,12211,026.1,045.4,0.455,742.2,01.18,0.508
2014-12-21 01:58:00,2152E-3,5C000000,-0724,0835,12100,026.1,045.4,0.456,742.2,01.18,0.508
2014-12-21 01:59:00,2164E-3,5C000000,-0724,0835,12190,026.1,045.4,0.455,742.3,01.18,0.508
2014-12-21 02:00:00,2034E-3,5C000000,-0724,0835,12011,026.1,045.4,0.456,742.3,01.18,0.508
2014-12-21 02:01:00,1942E-3,5C000000,-0724,0836,12195,026.1,045.4,0.455,742.2,01.18,0.508
2014-12-21 02:02:00,2152E-3,5C000000,-0724,0835,12132,026.1,045.4,0.455,742.2,01.18,0.508
2014-12-21 02:03:00,2037E-3,5C000000,-0724,0835,12284,026.1,045.4,0.455,742.3,01.18,0.508
2014-12-21 02:04:00,2025E-3,5C000000,-0724,0837,12235,026.1,045.4,0.456,742.3,01.18,0.508
2014-12-21 02:05:00,2092E-3,5C000000,-0724,0836,12253,026.1,045.4,0.455,742.3,01.18,0.508
2014-12-21 02:06:00,2027E-3,5C000000,-0724,0836,12214,026.1,045.4,0.455,742.3,01.18,0.508
2014-12-21 02:07:00,2096E-3,5C000000,-0724,0835,12208,026.1,045.4,0.455,742.3,01.18,0.508
2014-12-21 02:08:00,2255E-3,5C000000,-0724,0835,12207,026.1,045.4,0.456,742.3,01.18,0.508
2014-12-21 02:09:00,2119E-3,5C000000,-0724,0833,12094,026.1,045.4,0.455,742.3,01.18,0.508
2014-12-21 02:10:00,1924E-3,5C000000,-0724,0834,12179,026.0,045.4,0.455,742.3,01.18,0.508
2014-12-21 02:11:00,2053E-3,5C000000,-0724,0835,12238,026.1,045.4,0.455,742.3,01.18,0.508
2014-12-21 02:12:00,2149E-3,5C000000,-0724,0836,12078,026.1,045.4,0.455,742.3,01.18,0.508
2014-12-21 02:13:00,2061E-3,5C000000,-0724,0836,12138,026.1,045.4,0.455,742.2,01.18,0.508
2014-12-21 02:14:00,2227E-3,5C000000,-0724,0836,12165,026.1,045.4,0.455,742.2,01.18,0.508
2014-12-21 02:15:00,2055E-3,5C000000,-0724,0836,12102,026.1,045.4,0.455,742.2,01.18,0.508
2014-12-21 02:16:00,2115E-3,5C000000,-0724,0835,12069,026.1,045.4,0.455,742.3,01.18,0.508
2014-12-21 02:17:00,2058E-3,5C000000,-0724,0836,12202,026.1,045.4,0.455,742.3,01.18,0.508
2014-12-21 02:18:00,2160E-3,5C000000,-0724,0836,12120,026.1,045.4,0.455,742.3,01.18,0.508
2014-12-21 02:19:00,2002E-3,5C000000,-0724,0836,12194,026.1,045.4,0.455,742.3,01.18,0.508
2014-12-21 02:20:00,2022E-3,5C000000,-0724,0835,12133,026.1,045.4,0.455,742.3,01.18,0.508
2014-12-21 02:21:00,2141E-3,5C000000,-0724,0834,12054,026.1,045.4,0.455,742.3,01.18,0.508
2014-12-21 02:22:00,2188E-3,5C000000,-0724,0835,12238,026.1,045.4,0.455,742.3,01.18,0.508
2014-12-21 02:23:00,2179E-3,5C000000,-0724,0835,12091,026.1,045.4,0.455,742.2,01.18,0.508
2014-12-21 02:24:00,2053E-3,5C000000,-0724,0835,12103,026.1,045.4,0.455,742.3,01.18,0.508
2014-12-21 02:25:00,1961E-3,5C000000,-0724,0838,12223,026.1,045.4,0.455,742.2,01.18,0.508
2014-12-21 02:26:00,2014E-3,5C000000,-0724,0836,12171,026.1,045.4,0.455,742.2,01.18,0.508
2014-12-21 02:27:00,2115E-3,5C000000,-0724,0836,12159,026.1,045.4,0.455,742.2,01.18,0.508
2014-12-21 02:28:00,2006E-3,5C000000,-0724,0836,12041,026.1,045.4,0.455,742.2,01.18,0.508
2014-12-21 02:29:00,1969E-3,5C000000,-0724,0836,11873,026.1,045.4,0.455,742.2,01.18,0.508
2014-12-21 02:30:00,1999E-3,5C000000,-0724,0836,12113,026.1,045.4,0.455,742.2,01.18,0.508
2014-12-21 02:31:00,2162E-3,5C000000,-0724,0836,11976,026.1,045.4,0.455,742.2,01.18,0.508
2014-12-21 02:32:00,2284E-3,5C000000,-0724,0836,12398,026.1,045.4,0.455,742.2,01.18,0.508
2014-12-21 02:33:00,2183E-3,5C000000,-0724,0836,12223,026.1,045.4,0.455,742.2,01.18,0.508
2014-12-21 02:34:00,2203E-3,5C000000,-0724,0835,12094,026.1,045.4,0.455,742.2,01.18,0.508
2014-12-21 02:35:00,2065E-3,5C000000,-0724,0836,12193,026.1,045.4,0.455,742.3,01.18,0.508
2014-12-21 02:36:00,2190E-3,5C000000,-0724,0836,12232,026.1,045.4,0.455,742.2,01.18,0.508
2014-12-21 02:37:00,2074E-3,5C000000,-0724,0835,12115,026.1,045.4,0.455,742.2,01.18,0.508
2014-12-21 02:38:00,2077E-3,5C000000,-0724,0835,12115,026.1,045.4,0.455,742.2,01.18,0.508
2014-12-21 02:39:00,2069E-3,5C000000,-0724,0836,12166,026.1,045.4,0.455,742.2,01.18,0.508
2014-12-21 02:40:00,1941E-3,5C000000,-0724,0834,11865,026.1,045.4,0.455,742.2,01.18,0.508
2014-12-21 02:41:00,2098E-3,5C000000,-0724,0835,12172,026.1,045.4,0.455,742.2,01.18,0.508
2014-12-21 02:42:00,2094E-3,5C000000,-0724,0836,12115,026.1,045.4,0.455,742.2,01.18,0.508
2014-12-21 02:43:00,2126E-3,5C000000,-0724,0835,12250,026.1,045.4,0.455,742.1,01.18,0.508
2014-12-21 02:44:00,2144E-3,5C000000,-0724,0835,12233,026.1,045.4,0.455,742.1,01.18,0.508
2014-12-21 02:45:00,2017E-3,5C000000,-0724,0835,11997,026.1,045.4,0.455,742.1,01.18,0.508
2014-12-21 02:46:00,1955E-3,5C000000,-0724,0836,12239,026.0,045.4,0.455,742.1,01.18,0.508
2014-12-21 02:47:00,2104E-3,5C000000,-0724,0835,12327,026.0,045.4,0.455,742.1,01.18,0.508
2014-12-21 02:48:00,2183E-3,5C000000,-0724,0835,12121,026.1,045.4,0.455,742.2,01.18,0.508
2014-12-21 02:49:00,2119E-3,5C000000,-0724,0835,12228,026.1,045.4,0.455,742.2,01.18,0.508
2014-12-21 02:50:00,2184E-3,5C000000,-0724,0835,11992,026.1,045.4,0.455,742.1,01.18,0.508
2014-12-21 02:51:00,2040E-3,5C000000,-0724,0834,12015,026.1,045.4,0.455,742.1,01.18,0.508
2014-12-21 02:52:00,2149E-3,5C000000,-0724,0835,12352,026.0,045.4,0.455,742.1,01.18,0.508
2014-12-21 02:53:00,2170E-3,5C000000,-0724,0835,12049,026.1,045.4,0.455,742.1,01.18,0.508
2014-12-21 02:54:00,2167E-3,5C000000,-0724,0836,12124,026.1,045.4,0.455,742.1,01.18,0.508
2014-12-21 02:55:00,2135E-3,5C000000,-0724,0835,12098,026.0,045.4,0.455,742.1,01.18,0.508
2014-12-21 02:56:00,1953E-3,5C000000,-0724,0836,12055,026.0,045.4,0.455,742.1,01.18,0.508
2014-12-21 02:57:00,2244E-3,5C000000,-0724,0836,12181,026.0,045.4,0.455,742.1,01.18,0.508
2014-12-21 02:58:00,2100E-3,5C000000,-0724,0836,12011,026.0,045.4,0.455,742.1,01.18,0.508
2014-12-21 02:59:00,2029E-3,5C000000,-0724,0836,12027,026.0,045.4,0.455,742.1,01.18,0.508
2014-12-21 03:00:00,2182E-3,5C000000,-0724,0835,12130,026.1,045.4,0.455,742.1,01.18,0.508
2014-12-21 03:01:00,1988E-3,5C000000,-0724,0836,12130,026.0,045.4,0.455,742.1,01.18,0.508
2014-12-21 03:02:00,2039E-3,5C000000,-0724,0834,12208,026.0,045.4,0.455,742.1,01.18,0.508
2014-12-21 03:03:00,2207E-3,5C000000,-0724,0836,12166,026.0,045.4,0.455,742.1,01.18,0.508
2014-12-21 03:04:00,2161E-3,5C000000,-0724,0836,12152,026.0,045.4,0.455,742.1,01.18,0.508
2014-12-21 03:05:00,2147E-3,5C000000,-0724,0835,12285,026.0,045.4,0.455,742.1,01.18,0.508
2014-12-21 03:06:00,2184E-3,5C000000,-0724,0834,12248,026.0,045.4,0.455,742.1,01.18,0.508
2014-12-21 03:07:00,2100E-3,5C000000,-0724,0836,12145,026.0,045.4,0.455,742.1,01.18,0.508
2014-12-21 03:08:00,2117E-3,5C000000,-0724,0834,11999,026.0,045.4,0.455,742.1,01.18,0.508
2014-12-21 03:09:00,2080E-3,5C000000,-0724,0834,12177,026.0,045.4,0.455,742.1,01.18,0.508
2014-12-21 03:10:00,2051E-3,5C000000,-0724,0835,12217,026.0,045.4,0.455,742.1,01.18,0.508
2014-12-21 03:11:00,2084E-3,5C000000,-0724,0835,12113,026.0,045.4,0.455,742.1,01.18,0.508
2014-12-21 03:12:00,2064E-3,5C000000,-0724,0836,12222,026.1,045.4,0.456,742.1,01.18,0.508
2014-12-21 03:13:00,2147E-3,5C000000,-0724,0835,12139,026.0,045.4,0.455,742.1,01.18,0.508
2014-12-21 03:14:00,2149E-3,5C000000,-0724,0835,12227,026.0,045.4,0.455,742.0,01.18,0.508
2014-12-21 03:15:00,1979E-3,5C000000,-0724,0835,12078,026.0,045.4,0.455,742.0,01.18,0.508
2014-12-21 03:16:00,2241E-3,5C000000,-0724,0834,12208,026.0,045.4,0.455,742.0,01.18,0.508
2014-12-21 03:17:00,2051E-3,5C000000,-0724,0836,12157,026.0,045.4,0.455,742.0,01.18,0.508
2014-12-21 03:18:00,2143E-3,5C000000,-0724,0835,12135,026.0,045.4,0.455,742.0,01.18,0.508
2014-12-21 03:19:00,2166E-3,5C000000,-0724,0835,12126,026.0,045.4,0.455,742.0,01.18,0.508
2014-12-21 03:20:00,2233E-3,5C000000,-0724,0836,12249,026.0,045.4,0.455,742.1,01.18,0.508
2014-12-21 03:21:00,2112E-3,5C000000,-0724,0834,12233,026.0,045.4,0.455,742.0,01.18,0.508
2014-12-21 03:22:00,2137E-3,5C000000,-0724,0835,11989,026.0,045.4,0.455,742.1,01.18,0.508
2014-12-21 03:23:00,2082E-3,5C000000,-0724,0834,11901,026.0,045.4,0.455,742.0,01.18,0.508
2014-12-21 03:24:00,2132E-3,5C000000,-0724,0836,12116,026.0,045.4,0.455,742.0,01.18,0.508
2014-12-21 03:25:00,1987E-3,5C000000,-0724,0835,12259,026.0,045.4,0.455,742.0,01.18,0.508
2014-12-21 03:26:00,2175E-3,5C000000,-0724,0836,12150,026.0,045.4,0.455,742.1,01.18,0.508
2014-12-21 03:27:00,2045E-3,5C000000,-0724,0835,12066,026.0,045.4,0.455,742.1,01.18,0.508
2014-12-21 03:28:00,2047E-3,5C000000,-0724,0835,12096,026.0,045.4,0.456,742.1,01.18,0.508
2014-12-21 03:29:00,2074E-3,5C000000,-0724,0836,12269,026.0,045.4,0.455,742.1,01.18,0.508
2014-12-21 03:30:00,2123E-3,5C000000,-0724,0835,12088,026.0,045.4,0.455,742.1,01.18,0.508
2014-12-21 03:31:00,2034E-3,5C000000,-0724,0837,12365,026.0,045.4,0.455,742.1,01.18,0.508
2014-12-21 03:32:00,2040E-3,5C000000,-0724,0835,12102,026.0,045.4,0.455,742.0,01.18,0.508
2014-12-21 03:33:00,1998E-3,5C000000,-0724,0835,12275,026.0,045.4,0.455,742.0,01.18,0.508
2014-12-21 03:34:00,2076E-3,5C000000,-0724,0835,12215,026.0,045.4,0.455,742.0,01.18,0.508
2014-12-21 03:35:00,2141E-3,5C000000,-0724,0836,12228,026.0,045.4,0.456,742.0,01.18,0.508
2014-12-21 03:36:00,2139E-3,5C000000,-0724,0836,12119,026.0,045.4,0.455,742.0,01.18,0.508
2014-12-21 03:37:00,2080E-3,5C000000,-0724,0836,12240,026.0,045.4,0.455,742.0,01.18,0.508
2014-12-21 03:38:00,1943E-3,5C000000,-0724,0835,12197,026.0,045.4,0.455,742.0,01.18,0.508
2014-12-21 03:39:00,2046E-3,5C000000,-0724,0836,12099,026.0,045.4,0.455,742.0,01.18,0.508
2014-12-21 03:40:00,1997E-3,5C000000,-0724,0836,12119,026.0,045.4,0.455,742.0,01.18,0.508
2014-12-21 03:41:00,2226E-3,5C000000,-0724,0835,12108,026.0,045.4,0.455,742.0,01.18,0.508
2014-12-21 03:42:00,2150E-3,5C000000,-0724,0835,12100,026.0,045.4,0.456,742.1,01.18,0.508
2014-12-21 03:43:00,2207E-3,5C000000,-0724,0834,12379,025.9,045.4,0.455,742.1,01.18,0.508
2014-12-21 03:44:00,2259E-3,5C000000,-0724,0835,12100,026.0,045.4,0.456,742.0,01.18,0.508
2014-12-21 03:45:00,2166E-3,5C000000,-0724,0835,12092,026.0,045.4,0.455,742.0,01.18,0.508
2014-12-21 03:46:00,2133E-3,5C000000,-0724,0836,12084,025.9,045.4,0.455,742.0,01.18,0.508
2014-12-21 03:47:00,2008E-3,5C000000,-0724,0836,12403,025.9,045.4,0.455,742.0,01.18,0.508
2014-12-21 03:48:00,2001E-3,5C000000,-0724,0836,12223,025.9,045.4,0.455,742.0,01.18,0.508
2014-12-21 03:49:00,2094E-3,5C000000,-0724,0834,12197,025.9,045.4,0.456,742.1,01.18,0.508
2014-12-21 03:50:00,2036E-3,5C000000,-0724,0834,12145,026.0,045.4,0.455,742.1,01.18,0.508
2014-12-21 03:51:00,2027E-3,5C000000,-0724,0836,12231,026.0,045.4,0.456,742.1,01.18,0.508
2014-12-21 03:52:00,2143E-3,5C000000,-0724,0835,11839,026.0,045.4,0.455,742.1,01.18,0.508
2014-12-21 03:53:00,2057E-3,5C000000,-0724,0835,12142,026.0,045.4,0.455,742.1,01.18,0.508
2014-12-21 03:54:00,2022E-3,5C000000,-0724,0835,12227,025.9,045.4,0.455,742.1,01.18,0.508
2014-12-21 03:55:00,2184E-3,5C000000,-0724,0836,12116,025.9,045.4,0.455,742.1,01.18,0.508
2014-12-21 03:56:00,1967E-3,5C000000,-0724,0836,12095,025.9,045.4,0.456,742.1,01.18,0.508
2014-12-21 03:57:00,2118E-3,5C000000,-0724,0836,12209,026.0,045.4,0.455,742.1,01.18,0.508
2014-12-21 03:58:00,2149E-3,5C000000,-0724,0835,12118,025.9,045.4,0.456,742.0,01.18,0.508
2014-12-21 03:59:00,1920E-3,5C000000,-0724,0835,12059,025.9,045.4,0.455,742.0,01.18,0.508
2014-12-21 04:00:00,2025E-3,5C000000,-0724,0836,12118,025.9,045.4,0.455,742.0,01.18,0.508
2014-12-21 04:01:00,2093E-3,5C000000,-0724,0835,12078,025.9,045.4,0.455,742.0,01.18,0.508
2014-12-21 04:02:00,2250E-3,5C000000,-0724,0835,12106,025.9,045.4,0.455,742.0,01.18,0.508
2014-12-21 04:03:00,1964E-3,5C000000,-0724,0836,11990,025.9,045.4,0.456,742.0,01.18,0.508
2014-12-21 04:04:00,2093E-3,5C000000,-0724,0836,12109,025.9,045.4,0.455,742.0,01.18,0.508
2014-12-21 04:05:00,2080E-3,5C000000,-0724,0837,12211,025.9,045.4,0.455,742.0,01.18,0.508
2014-12-21 04:06:00,2198E-3,5C000000,-0724,0837,11995,026.0,045.3,0.455,742.0,01.18,0.508
2014-12-21 04:07:00,2227E-3,5C000000,-0724,0836,12221,025.9,045.3,0.455,742.0,01.18,0.508
2014-12-21 04:08:00,2110E-3,5C000000,-0724,0836,12033,025.9,045.4,0.456,742.0,01.18,0.508
2014-12-21 04:09:00,1919E-3,5C000000,-0724,0835,11994,025.9,045.4,0.455,742.0,01.18,0.508
2014-12-21 04:10:00,2056E-3,5C000000,-0724,0836,12097,025.9,045.4,0.455,742.0,01.18,0.508
2014-12-21 04:11:00,2012E-3,5C000000,-0724,0837,12056,025.9,045.4,0.455,742.0,01.18,0.508
2014-12-21 04:12:00,2175E-3,5C000000,-0724,0835,12257,025.9,045.4,0.455,742.0,01.18,0.508
2014-12-21 04:13:00,2073E-3,5C000000,-0724,0835,12234,025.9,045.4,0.456,742.0,01.18,0.508
2014-12-21 04:14:00,2102E-3,5C000000,-0724,0835,12066,025.9,045.4,0.455,742.0,01.18,0.508
2014-12-21 04:15:00,1955E-3,5C000000,-0724,0836,12221,025.9,045.4,0.455,741.9,01.18,0.508
2014-12-21 04:16:00,2126E-3,5C000000,-0724,0836,12246,025.9,045.3,0.455,741.9,01.18,0.508
2014-12-21 04:17:00,2157E-3,5C000000,-0724,0835,12196,025.9,045.4,0.455,741.9,01.18,0.508
2014-12-21 04:18:00,2084E-3,5C000000,-0724,0836,12021,025.9,045.4,0.456,741.9,01.18,0.508
2014-12-21 04:19:00,1963E-3,5C000000,-0724,0835,12329,025.9,045.4,0.455,741.9,01.18,0.508
2014-12-21 04:20:00,2061E-3,5C000000,-0724,0835,12117,025.9,045.4,0.455,741.9,01.18,0.508